Regional Weather Roundup
Issued by NWS

Home | Current Version | Previous Version | Graphics & Text | Print | Product List | Glossary On
Versions: 1 2 3 4 5 6 7 8 9 10 11 12 13 14 15 16 17 18 19 20 21 22 23 24 25 26 27 28 29 30 31 32 33 34 35 36 37 38 39 40 41 42 43 44 45 46 47 48 49 50
000
ASUS43 KLOT 061608
RWRIL

ILLINOIS REGIONAL WEATHER ROUNDUP
NATIONAL WEATHER SERVICE CHICAGO/ROMEOVILLE IL
1100 AM CDT WED MAY 06 2015

NOTE: "FAIR" INDICATES FEW OR NO CLOUDS BELOW 12,000 FEET WITH NO
SIGNIFICANT WEATHER AND/OR OBSTRUCTIONS TO VISIBILITY.

* THESE STATIONS ARE NOT UNDER NWS QUALITY CONTROL. THEY ALSO MAY NOT
  REPORT WEATHER SUCH AS PRECIPITATION OR FOG.

ILZ001-002-007-009-015-016-024-061700-
NORTHWEST ILLINOIS

CITY           SKY/WX    TMP DP  RH WIND       PRES   REMARKS
MOLINE         MOSUNNY   72  60  66 SE9       30.10F
STERLING*      MOSUNNY   70  61  73 SE6       30.15R
SAVANNA*       MOSUNNY   66  58  76 E6        30.13F HAZE
$$

ILZ003-004-008-010-011-017-018-061700-
NORTH CENTRAL ILLINOIS

CITY           SKY/WX    TMP DP  RH WIND       PRES   REMARKS
ROCKFORD       CLOUDY    63  57  81 SE9       30.17F HAZE
FREEPORT*      PTSUNNY   61  58  91 E5        30.17F FOG
ROCHELLE*      MOSUNNY   64  60  87 SE6       30.16S FOG
DE KALB*       PTSUNNY   61  58  92 SE7       30.18S FOG
PERU*          PTSUNNY   68  62  82 SE6       30.16F HAZE
$$

ILZ005-006-012>014-019>023-061700-
NORTHEAST ILLINOIS

CITY           SKY/WX    TMP DP  RH WIND       PRES   REMARKS
CHICAGO-OHARE  PTSUNNY   64  58  80 VRB5      30.17S HAZE
CHICAGO-MIDWAY MOSUNNY   66  58  75 S6        30.17F HAZE
AURORA         MOSUNNY   66  59  78 SE8       30.17S HAZE
LANSING*       PTSUNNY   67  59  75 CALM      30.18F HAZE
JOLIET*        MOSUNNY   69  64  85 SE5       30.17F HAZE
WAUKEGAN       CLOUDY    53  52  96 E6        30.19R FOG
DUPAGE AIRPORT MOSUNNY   65  59  81 S3        30.17S HAZE
KANKAKEE*      PTSUNNY   74  67  79 S5        30.18F
WHEELING       MOSUNNY   61  56  83 CALM      30.19S HAZE
MORRIS*        PTSUNNY   65  64  96 S6        30.15F FOG
ROMEOVILLE*    MOSUNNY   66  62  87 S5        30.17F FOG
NORTHERLY ISL    N/A     54  53  97 NE1         N/A
$$

LMZ740>746-061700-
SOUTHERN LAKE MICHIGAN

STATION/POSITION SKY/WX   TEMP    WIND        PRES    VSBY  WAVE
                          AIR SEA DIR/SP/G                  HT/PER
                          (F)     (DEG/KT/KT) (MB)    (MI)  (FT/S)
HARRISON CRIB              50      70/  1/  2   N/A
BURNHAM HARBOR             53      40/  3       N/A
CALUMET HARBOR             56      50/  4/  5   N/A
BURNS HARBOR               65     180/  4/  7 1022.4F
MICHIGAN CITY              64     120/  6/  9   N/A
MICHIGAN CITY 6N           55 54  360/  2/  4   N/A           0
ST. JOSEPH                 60 52  120/  2/  2   N/A           0
$$

ILZ025>027-034>036-040-047-049-050-058-095>099-061700-
WEST-CENTRAL ILLINOIS

CITY           SKY/WX    TMP DP  RH WIND       PRES   REMARKS
QUINCY         SUNNY     79  54  41 S18G26    30.08F
GALESBURG*     MOSUNNY   76  60  59 S9        30.12S
MACOMB*        SUNNY     78  57  49 S17G23    30.13S
JACKSONVILLE*  SUNNY     83  54  36 S16       30.13S HX  82
PITTSFIELD*    SUNNY     80  55  42 S15       30.12S HX  80
$$

ILZ028>032-037-038-041>044-048-051>054-059>061-061700-
CENTRAL ILLINOIS

CITY           SKY/WX    TMP DP  RH WIND       PRES   REMARKS
PONTIAC        MOSUNNY   78  62  57 S8        30.17F HX  80
BLOOMINGTON    SUNNY     79  60  51 S12       30.17F HX  80
DECATUR        MOSUNNY   81  52  36 S13G23    30.16F HX  80
PEORIA         SUNNY     79  59  50 S13G18    30.14F HX  80
LACON*         MOSUNNY   74  60  63 SW6       30.13F
LINCOLN*       MOSUNNY   80  53  39 SW8G17    30.13S HX  80
SPRINGFIELD    MOSUNNY   82  54  37 S14G22    30.14S HX  81
TAYLORVILLE    MOSUNNY   81  52  36 S16G22    30.15S HX  80
$$

ILZ033-039-045-046-055>057-062-063-061700-
EAST-CENTRAL ILLINOIS

CITY           SKY/WX    TMP DP  RH WIND       PRES   REMARKS
CHAMPAIGN      MOSUNNY   84  49  29 S14       30.17F HX  82
DANVILLE*      MOSUNNY   80  56  43 W7        30.16S HX  80
RANTOUL*       SUNNY     82  55  39 SW10G16   30.17F HX  81
MATTOON        LGT RAIN  80  53  39 SW10      30.17F HX  80
PARIS*         SUNNY     83  52  33 S13       30.19S HX  82
$$

ILZ079-100>102-061700-
SOUTHWEST ILLINOIS

CITY           SKY/WX    TMP DP  RH WIND       PRES   REMARKS
ALTON          MOSUNNY   79  57  47 S12       30.14F HX  80
BELLEVILLE     SUNNY     81  59  47 VRB6      30.13F HX  81
CAHOKIA*       SUNNY     81  57  43 S12G22    30.13S HX  81
SPARTA*        SUNNY     77  59  53 S15       30.16F
$$

ILZ064>066-069>071-074>076-080>082-084>086-088>090-092>094-061700-
SOUTH-CENTRAL ILLINOIS

CITY           SKY/WX    TMP DP  RH WIND       PRES   REMARKS
CARBONDALE     SUNNY     81  56  42 S15       30.16F HX  81
CAIRO*         SUNNY     79  58  47 S7        30.17S HX  80
EFFINGHAM*     SUNNY     81  49  32 S8        30.19F HX  80
MARION         MOSUNNY   81  57  44 S12       30.18F HX  81
MT. VERNON     SUNNY    N/A N/A N/A S12       30.18S
CENTRALIA*     SUNNY     85  53  32 S10       30.16F HX  83
SALEM*         SUNNY     83  51  32 S10       30.17S HX  82
METROPOLIS*    MOSUNNY   80  59  47 SE5       30.17F HX  81
$$

ILZ067-068-072-073-078-083-087-091-061700-
SOUTHEAST ILLINOIS

CITY           SKY/WX    TMP DP  RH WIND       PRES   REMARKS
LAWRENCEVILLE  SUNNY     82  54  37 SW8       30.20S HX  81
FLORA*         SUNNY     82  52  35 S13G21    30.19S HX  81
FAIRFIELD*     MOSUNNY   82  54  38 S10       30.17S HX  81
HARRISBURG*    SUNNY     81  54  39 S8        30.19S HX  81
ROBINSON*      SUNNY     82  49  31 W8        30.20S HX  81
CARMI*         PTSUNNY   81  49  33 S6        30.19S HX  80
$$

ABBREVIATIONS USED IN REMARKS
   TC - TEMPERATURE IN CELSIUS
  WCI - WIND CHILL INDEX
   HX - HEAT INDEX
  VSB - VISIBILITY
$$




USA.gov is the U.S. government's official web portal to all federal, state and local government web resources and services.